Regional Weather Roundup
Issued by NWS

Home | Current Version | Previous Version | Text Only | Print | Product List | Glossary Off
Versions: 1 2 3 4 5 6 7 8 9 10 11 12 13 14 15 16 17 18 19 20 21 22 23 24 25 26 27 28 29 30 31 32 33 34 35 36 37 38 39 40 41 42 43 44 45 46 47 48 49 50

000
ASUS43 KFSD 281010
RWRSD

WEATHER ROUNDUP FOR SOUTH DAKOTA
NATIONAL WEATHER SERVICE SIOUX FALLS SD
500 AM CDT SAT MAR 28 2015

NOTE: "FAIR" INDICATES FEW OR NO CLOUDS BELOW 12,000 FEET WITH NO
SIGNIFICANT WEATHER AND/OR OBSTRUCTIONS TO VISIBILITY.


SDZ001>005-009-010-012>017-281100-
NORTHWEST AND NORTH CENTRAL SOUTH DAKOTA

CITY           SKY/WX    TMP DP  RH WIND       PRES   REMARKS
BUFFALO          N/A     39  32  76 SE7       29.84F
FAITH            N/A     36  31  82 S10       29.93F
MOBRIDGE       CLEAR     26  23  88 E10       29.97R WCI  16
$$

SDZ012>016-024>037-041>051-057-063-072>074-281100-
SOUTHWEST AND SOUTH CENTRAL SOUTH DAKOTA

CITY           SKY/WX    TMP DP  RH WIND       PRES   REMARKS
RAPID CTY ARPT PTCLDY    40  31  70 W5        29.93F
PIERRE         CLEAR     24  22  91 E5        29.98S WCI  18
CUSTER         CLEAR     41  25  53 NW5       29.99F
ELLSWORTH AFB  CLEAR     39  31  72 SW6       29.92F
PHILIP         CLEAR     28  25  88 W5        29.96S WCI  23
PINE RIDGE     PTCLDY    30  26  85 CALM      29.95F
SPEARFISH      FAIR      41  30  65 SE3       29.93F
WINNER         CLOUDY    35  29  78 SE5       29.98S
$$

SDZ004>011-016>023-039-040-281100-
NORTHEAST SOUTH DAKOTA

CITY           SKY/WX    TMP DP  RH WIND       PRES   REMARKS
ABERDEEN       CLOUDY    32  26  78 SE9       30.06S WCI  24
WATERTOWN      CLOUDY    28  24  85 S12       30.06S WCI  18
SISSETON         N/A     25  23  92 SE8       30.09S WCI  16
$$

SDZ017-020-022-023-036>040-048>070-281100-
SOUTHEAST SOUTH DAKOTA

CITY           SKY/WX    TMP DP  RH WIND       PRES   REMARKS
SIOUX FALLS    CLOUDY    30  24  78 SE10      30.09R WCI  21
HURON          CLOUDY    27  24  89 SE12      30.06F WCI  17
CHAMBERLAIN    CLEAR     24  23  96 E3        30.00S
MITCHELL       PTCLDY    25  22  88 SE7       30.07R WCI  17
YANKTON        CLEAR     25  19  80 E8        30.09R WCI  16
$$

ABBREVIATIONS USED IN REMARKS
   TC - TEMPERATURE IN CELSIUS
  WCI - WIND CHILL INDEX
   HX - HEAT INDEX
  VSB - VISIBILITY




USA.gov is the U.S. government's official web portal to all federal, state and local government web resources and services.